Weather History for South Pass, WY

Change the Weather History Date:

Thursday, October 4, 2012

  Actual Average (KLND) Record (KLND)
Temperature  
Mean Temperature 30 °F 50 °F  
Max Temperature 42 °F 63 °F 85 °F (1963)
Min Temperature 19 °F 37 °F 18 °F (1891)
Degree Days  
Heating Degree Days 34 15  
Month to date heating degree days 57  
Since 1 July heating degree days 316  
Cooling Degree Days 0 0  
Month to date cooling degree days 0  
Year to date cooling degree days 472  
Moisture  
Dew Point 19 °F    
Average Humidity 70    
Maximum Humidity 100    
Minimum Humidity 27    
Precipitation  
Precipitation 0.00 in 0.05 in 1.56 in (2009)
Month to date precipitation 0.20  
Year to date precipitation 10.13  
Snow  
Snow - 0.30 in - ()
Month to date snowfall 1.0  
Since 1 July snowfall 3.7  
Since 1 September snowfall 3.7  
Snow Depth -    
Sea Level Pressure  
Sea Level Pressure 30.12 in    
Wind  
Wind Speed 10 mph ()    
Max Wind Speed 26 mph    
Max Gust Speed 32 mph    
Visibility 10.0 miles    
Events      
T = Trace of Precipitation, MM = Missing Value Source: Averaged Metar Reports

Daily Weather History Graph

Daily Weather History Graph

Search for Another Location

Airport:

Trip Planner

Search our weather history database for the weather conditions in past years. The results will help you decide how hot, cold, wet, or windy it might be!

Date:

Astronomy

Oct. 04, 2012 Rise Set
Actual Time 7:16 AM MDT 6:50 PM MDT
Civil Twilight 6:48 AM MDT 7:18 PM MDT
Nautical Twilight 6:15 AM MDT 7:50 PM MDT
Astronomical Twilight 5:42 AM MDT 8:23 PM MDT
Moon 9:22 PM MDT (10/4) 11:41 AM MDT (10/4)
Length of Visible Light 12h 30m
Length of Day
11h 34m
Waning Gibbous, 81% of the Moon is Illuminated
Oct 4
Waning Gibbous
Oct 8
Last Quarter
Oct 15
New
Oct 21
First Quarter
Oct 29
Full

Hourly Weather History & Observations

Time (MDT) Temp. Windchill Dew Point Humidity Pressure Visibility Wind Dir Wind Speed Gust Speed Precip Events Conditions
12:15 AM 23.0 °F 8.3 °F 19.4 °F 86% - 10.0 mi North 19.6 mph 26.5 mph N/A   Clear
12:35 AM 23.0 °F 8.7 °F 19.4 °F 86% - 10.0 mi North 18.4 mph 24.2 mph N/A   Clear
1:15 AM 23.0 °F 9.6 °F 19.4 °F 86% - 10.0 mi North 16.1 mph 19.6 mph N/A   Clear
1:35 AM 23.0 °F 12.4 °F 19.4 °F 86% - 10.0 mi North 10.4 mph - N/A   Scattered Clouds
1:55 AM 23.0 °F 11.7 °F 21.2 °F 93% - 10.0 mi North 11.5 mph 16.1 mph N/A   Mostly Cloudy
2:15 AM 23.0 °F 12.4 °F 21.2 °F 93% - 10.0 mi North 10.4 mph 18.4 mph N/A   Overcast
2:35 AM 23.0 °F 11.7 °F 21.2 °F 93% - 10.0 mi NNE 11.5 mph - N/A   Overcast
2:55 AM 23.0 °F 12.4 °F 21.2 °F 93% - 10.0 mi NNE 10.4 mph - N/A   Overcast
3:35 AM 23.0 °F 13.1 °F 19.4 °F 86% - 10.0 mi North 9.2 mph - N/A   Overcast
3:55 AM 23.0 °F 11.1 °F 19.4 °F 86% - 10.0 mi North 12.7 mph - N/A   Scattered Clouds
4:15 AM 21.2 °F 10.1 °F 19.4 °F 93% - 10.0 mi North 10.4 mph - N/A   Scattered Clouds
4:35 AM 21.2 °F 12.6 °F 19.4 °F 93% - 10.0 mi North 6.9 mph - N/A   Clear
4:55 AM 21.2 °F 14.9 °F 19.4 °F 93% - 10.0 mi NNE 4.6 mph - N/A   Clear
5:15 AM 21.2 °F 14.9 °F 19.4 °F 93% - 10.0 mi NE 4.6 mph - N/A   Clear
5:35 AM 21.2 °F 14.9 °F 19.4 °F 93% - 10.0 mi ENE 4.6 mph - N/A   Clear
5:55 AM 21.2 °F 14.9 °F 19.4 °F 93% - 10.0 mi ENE 4.6 mph - N/A   Scattered Clouds
6:15 AM 21.2 °F 16.4 °F 19.4 °F 93% - 10.0 mi East 3.5 mph - N/A   Overcast
6:35 AM 21.2 °F - 19.4 °F 93% - 10.0 mi Calm Calm - N/A   Mostly Cloudy
6:55 AM 21.2 °F 16.4 °F 19.4 °F 93% - 10.0 mi North 3.5 mph - N/A   Scattered Clouds
7:15 AM 21.2 °F - 19.4 °F 93% - 10.0 mi Calm Calm - N/A   Overcast
7:35 AM 19.4 °F 14.3 °F 19.4 °F 100% - 10.0 mi North 3.5 mph - N/A   Overcast
8:15 AM 21.2 °F 16.4 °F 21.2 °F 100% - 10.0 mi ENE 3.5 mph - N/A   Overcast
8:35 AM 21.2 °F 14.9 °F 21.2 °F 100% - 10.0 mi NE 4.6 mph - N/A   Overcast
8:55 AM 21.2 °F 13.6 °F 21.2 °F 100% - 10.0 mi NE 5.8 mph - N/A   Overcast
9:15 AM 23.0 °F 15.8 °F 21.2 °F 93% - 10.0 mi NE 5.8 mph - N/A   Overcast
9:35 AM 24.8 °F 19.1 °F 21.2 °F 86% - 10.0 mi NE 4.6 mph - N/A   Overcast
10:15 AM 26.6 °F 22.6 °F 21.2 °F 80% - 10.0 mi NNE 3.5 mph - N/A   Scattered Clouds
10:35 AM 28.4 °F 23.3 °F 21.2 °F 74% - 10.0 mi ENE 4.6 mph - N/A   Scattered Clouds
10:55 AM 32.0 °F 28.7 °F 21.2 °F 64% 30.18 in 10.0 mi ENE 3.5 mph - N/A   Scattered Clouds
11:15 AM 32.0 °F 25.6 °F 21.2 °F 64% 30.18 in 10.0 mi SSE 6.9 mph - N/A   Mostly Cloudy
11:35 AM 32.0 °F 24.8 °F 21.2 °F 64% 30.18 in 10.0 mi SSE 8.1 mph - N/A   Mostly Cloudy
11:55 AM 32.0 °F 26.4 °F 21.2 °F 64% 30.18 in 10.0 mi SE 5.8 mph - N/A   Mostly Cloudy
12:15 PM 32.0 °F 25.6 °F 19.4 °F 60% 30.17 in 10.0 mi SE 6.9 mph - N/A   Scattered Clouds
12:35 PM 33.8 °F 27.7 °F 21.2 °F 60% 30.17 in 10.0 mi ESE 6.9 mph - N/A   Scattered Clouds
12:55 PM 33.8 °F 25.8 °F 21.2 °F 60% 30.16 in 10.0 mi SE 10.4 mph - N/A   Scattered Clouds
1:15 PM 35.6 °F 29.2 °F 21.2 °F 56% 30.16 in 10.0 mi SSE 8.1 mph - N/A   Scattered Clouds
1:35 PM 35.6 °F 28.0 °F 19.4 °F 52% 30.15 in 10.0 mi SSE 10.4 mph - N/A   Scattered Clouds
1:55 PM 37.4 °F 30.3 °F 19.4 °F 48% 30.14 in 10.0 mi SSE 10.4 mph - N/A   Clear
2:15 PM 37.4 °F - 19.4 °F 48% 30.13 in 10.0 mi Calm Calm - N/A   Clear
2:35 PM 39.2 °F 34.2 °F 19.4 °F 45% 30.13 in 10.0 mi South 6.9 mph - N/A   Clear
2:55 PM 41.0 °F 34.7 °F 17.6 °F 39% 30.12 in 10.0 mi South 10.4 mph 17.3 mph N/A   Clear
3:15 PM 41.0 °F 34.7 °F 17.6 °F 39% 30.12 in 10.0 mi South 10.4 mph - N/A   Clear
3:35 PM 41.0 °F 34.3 °F 15.8 °F 36% 30.11 in 10.0 mi South 11.5 mph 19.6 mph N/A   Clear
3:55 PM 41.0 °F 37.1 °F 14.0 °F 33% 30.11 in 10.0 mi SSW 5.8 mph - N/A   Clear
4:15 PM 41.0 °F 35.8 °F 14.0 °F 33% 30.10 in 10.0 mi South 8.1 mph - N/A   Clear
4:35 PM 42.8 °F 39.3 °F 12.2 °F 29% 30.10 in 10.0 mi SSW 5.8 mph - N/A   Clear
4:55 PM 42.8 °F 41.1 °F 10.4 °F 27% 30.11 in 10.0 mi SW 3.5 mph - N/A   Clear
5:15 PM 41.0 °F 34.3 °F 17.6 °F 39% 30.10 in 10.0 mi NNE 11.5 mph 16.1 mph N/A   Clear
5:35 PM 37.4 °F 29.8 °F 19.4 °F 48% 30.11 in 10.0 mi NNE 11.5 mph - N/A   Clear
5:55 PM 35.6 °F 28.0 °F 19.4 °F 52% 30.11 in 10.0 mi NNE 10.4 mph - N/A   Clear
6:15 PM 33.8 °F 25.8 °F 19.4 °F 56% 30.11 in 10.0 mi North 10.4 mph - N/A   Clear
6:55 PM 33.8 °F 23.5 °F 19.4 °F 56% 30.10 in 10.0 mi North 16.1 mph 20.7 mph N/A   Clear
7:15 PM 32.0 °F 22.1 °F 19.4 °F 60% 30.10 in 10.0 mi North 13.8 mph 19.6 mph N/A   Scattered Clouds
7:35 PM 32.0 °F 21.2 °F 19.4 °F 60% 30.10 in 10.0 mi North 16.1 mph - N/A   Mostly Cloudy
8:15 PM 32.0 °F 21.6 °F 19.4 °F 60% 30.11 in 10.0 mi North 15.0 mph - N/A   Overcast
8:35 PM 32.0 °F 20.8 °F 19.4 °F 60% 30.11 in 10.0 mi North 17.3 mph 25.3 mph N/A   Overcast
9:15 PM 32.0 °F 19.5 °F 19.4 °F 60% 30.10 in 10.0 mi North 21.9 mph 28.8 mph N/A   Overcast
9:35 PM 32.0 °F 20.1 °F 19.4 °F 60% 30.10 in 10.0 mi North 19.6 mph 28.8 mph N/A   Overcast
9:55 PM 32.0 °F 19.8 °F 19.4 °F 60% 30.10 in 10.0 mi North 20.7 mph 26.5 mph N/A   Overcast
10:15 PM 32.0 °F 18.9 °F 19.4 °F 60% 30.09 in 10.0 mi North 24.2 mph 31.1 mph N/A   Overcast
10:35 PM 32.0 °F 18.4 °F 19.4 °F 60% 30.09 in 10.0 mi North 26.5 mph 32.2 mph N/A   Overcast
10:55 PM 30.2 °F 16.5 °F 19.4 °F 64% 30.09 in 10.0 mi North 24.2 mph 28.8 mph N/A   Overcast
11:15 PM 30.2 °F 18.1 °F 19.4 °F 64% 30.10 in 10.0 mi North 18.4 mph 23.0 mph N/A   Overcast
11:35 PM 30.2 °F 17.8 °F 19.4 °F 64% 30.10 in 10.0 mi North 19.6 mph 28.8 mph N/A   Overcast